Location: Fort Worth, Tx
(32.7431°N, 97.3695°W)
Time: 10:27:26
(UTC-04:00)

Explorer 11/Cluster Stage 4 - Pass Details

Date: 03 March 2024
Orbit: 465 x 1219 km, 28.8° (Epoch: 24 April)

Event Time Altitude Azimuth Distance (km) Brightness Sun altitude
Exits shadow 06:29:21 11° 214° (SW) 2,888 9.1 -18.6°
Drops below altitude 10° 06:30:20 10° 206° (SSW) 2,891 9.2 -18.4°
Sets 06:35:51 0° 169° (S) 3,623 10.1 -17.3°
